• In Hungary
  • List of Countries
  • For 7 days
  • Water Temperature
  • Satellite Maps
  • Weather Map
  • News
  • Weather Widgets
  • user-avatar
    Login

    Hourly Weather Kavarna

    Today, 22 October, Sunday

    Time Temperature Precipitation Wind Pressure Humidity
    00:00 +17°C° 0 mm 4 mps 759 mmHg 55%
    01:00 +17°C° 0 mm 4 mps 758 mmHg 54%
    02:00 +17°C° 0 mm 4 mps 758 mmHg 52%
    03:00 +17°C° 0 mm 4 mps 758 mmHg 54%
    04:00 +15°C° 0 mm 5 mps 758 mmHg 56%
    05:00 +15°C° 0 mm 5 mps 758 mmHg 58%
    06:00 +15°C° 0 mm 5 mps 759 mmHg 60%
    07:00 +15°C° 0 mm 6 mps 759 mmHg 62%
    08:00 +15°C° 0 mm 6 mps 759 mmHg 64%
    09:00 +16°C° 0 mm 6 mps 760 mmHg 60%
    10:00 +17°C° 0 mm 6 mps 760 mmHg 56%
    11:00 +19°C° 0 mm 5 mps 760 mmHg 52%
    12:00 +20°C° 0 mm 5 mps 760 mmHg 49%
    13:00 +20°C° 0 mm 4 mps 760 mmHg 46%
    14:00 +21°C° 0 mm 4 mps 760 mmHg 43%
    15:00 +20°C° 0 mm 4 mps 760 mmHg 47%
    16:00 +19°C° 0 mm 4 mps 760 mmHg 51%
    17:00 +19°C° 0 mm 3 mps 760 mmHg 54%
    18:00 +18°C° 0 mm 4 mps 760 mmHg 59%
    19:00 +17°C° 0 mm 4 mps 761 mmHg 64%
    20:00 +15°C° 0 mm 4 mps 761 mmHg 69%
    21:00 +15°C° 0 mm 4 mps 761 mmHg 73%
    22:00 +15°C° 0 mm 4 mps 761 mmHg 77%
    23:00 +14°C° 0 mm 5 mps 761 mmHg 80%

    Tomorrow, 23 October, Monday

    Time Temperature Precipitation Wind Pressure Humidity
    00:00 +14°C° 0 mm 5 mps 761 mmHg 82%
    01:00 +14°C° 0 mm 5 mps 761 mmHg 83%
    02:00 +14°C° 0 mm 5 mps 760 mmHg 84%
    03:00 +14°C° 0 mm 5 mps 760 mmHg 84%
    04:00 +14°C° 0 mm 5 mps 759 mmHg 83%
    05:00 +14°C° 0 mm 5 mps 759 mmHg 83%
    06:00 +14°C° 0 mm 5 mps 759 mmHg 81%
    07:00 +14°C° 0 mm 5 mps 759 mmHg 79%
    08:00 +15°C° 0 mm 6 mps 758 mmHg 77%
    09:00 +15°C° 0 mm 6 mps 758 mmHg 75%
    10:00 +16°C° 0 mm 6 mps 758 mmHg 73%
    11:00 +16°C° 0 mm 6 mps 757 mmHg 71%
    12:00 +16°C° 0 mm 6 mps 757 mmHg 71%
    13:00 +17°C° 0 mm 6 mps 756 mmHg 71%
    14:00 +17°C° 0 mm 6 mps 756 mmHg 71%
    15:00 +16°C° 0 mm 6 mps 755 mmHg 73%
    16:00 +16°C° 0 mm 6 mps 755 mmHg 76%
    17:00 +16°C° 0 mm 6 mps 755 mmHg 78%
    18:00 +16°C° 0 mm 7 mps 755 mmHg 81%
    19:00 +16°C° 0 mm 7 mps 755 mmHg 84%
    20:00 +16°C° 0 mm 7 mps 755 mmHg 87%
    21:00 +16°C° 0 mm 8 mps 755 mmHg 86%
    22:00 +16°C° 0 mm 8 mps 755 mmHg 85%
    23:00 +16°C° 0 mm 9 mps 755 mmHg 84%

    Day after tomorrow, 24 October, Tuesday

    Time Temperature Precipitation Wind Pressure Humidity
    00:00 +16°C° 0 mm 8 mps 754 mmHg 84%
    01:00 +16°C° 0 mm 8 mps 754 mmHg 85%
    02:00 +16°C° 0 mm 8 mps 754 mmHg 85%
    03:00 +16°C° 0 mm 8 mps 754 mmHg 85%
    04:00 +16°C° 0 mm 8 mps 754 mmHg 85%
    05:00 +16°C° 0 mm 8 mps 754 mmHg 86%
    06:00 +16°C° 0.2 mm 8 mps 754 mmHg 86%
    07:00 +16°C° 0.2 mm 8 mps 754 mmHg 86%
    08:00 +16°C° 0.2 mm 8 mps 754 mmHg 86%
    09:00 +17°C° 0.7 mm 8 mps 755 mmHg 86%
    10:00 +17°C° 0.7 mm 7 mps 755 mmHg 86%
    11:00 +17°C° 0.7 mm 7 mps 755 mmHg 86%
    12:00 +17°C° 0.2 mm 7 mps 755 mmHg 85%
    13:00 +17°C° 0.2 mm 8 mps 755 mmHg 83%
    14:00 +18°C° 0.2 mm 8 mps 755 mmHg 81%
    15:00 +17°C° 0.2 mm 9 mps 756 mmHg 82%
    16:00 +17°C° 0.2 mm 9 mps 756 mmHg 84%
    17:00 +17°C° 0.2 mm 10 mps 756 mmHg 85%
    18:00 +16°C° 0.3 mm 10 mps 757 mmHg 84%
    19:00 +16°C° 0.3 mm 10 mps 757 mmHg 83%
    20:00 +16°C° 0.3 mm 10 mps 758 mmHg 82%
    21:00 +16°C° 0.1 mm 10 mps 758 mmHg 82%
    22:00 +14°C° 0.1 mm 10 mps 758 mmHg 81%
    23:00 +14°C° 0.1 mm 10 mps 758 mmHg 80%

    25 October, Wednesday

    Time Temperature Precipitation Wind Pressure Humidity
    00:00 +14°C° 0 mm 10 mps 759 mmHg 80%
    01:00 +13°C° 0 mm 10 mps 759 mmHg 80%
    02:00 +13°C° 0 mm 10 mps 759 mmHg 81%
    03:00 +13°C° 0.1 mm 11 mps 759 mmHg 80%
    04:00 +12°C° 0.1 mm 11 mps 760 mmHg 80%
    05:00 +12°C° 0.1 mm 12 mps 760 mmHg 79%
    06:00 +12°C° 0 mm 12 mps 761 mmHg 78%
    07:00 +10°C° 0 mm 12 mps 761 mmHg 77%
    08:00 +10°C° 0 mm 12 mps 762 mmHg 76%
    09:00 +10°C° 0 mm 12 mps 762 mmHg 75%
    10:00 +10°C° 0 mm 12 mps 763 mmHg 74%
    11:00 +10°C° 0 mm 12 mps 763 mmHg 73%
    12:00 +11°C° 0.1 mm 11 mps 764 mmHg 70%
    13:00 +11°C° 0.1 mm 11 mps 764 mmHg 67%
    14:00 +11°C° 0.1 mm 11 mps 764 mmHg 63%
    15:00 +11°C° 0 mm 11 mps 765 mmHg 62%
    16:00 +11°C° 0 mm 11 mps 765 mmHg 61%
    17:00 +11°C° 0 mm 11 mps 765 mmHg 60%
    18:00 +9°C° 0 mm 11 mps 766 mmHg 59%
    19:00 +9°C° 0 mm 11 mps 766 mmHg 58%
    20:00 +9°C° 0 mm 11 mps 767 mmHg 57%
    21:00 +8°C° 0 mm 11 mps 767 mmHg 58%
    22:00 +8°C° 0 mm 10 mps 768 mmHg 59%
    23:00 +8°C° 0 mm 10 mps 768 mmHg 60%

    26 October, Thursday

    Time Temperature Precipitation Wind Pressure Humidity
    00:00 +7°C° 0 mm 9 mps 768 mmHg 61%
    01:00 +7°C° 0 mm 9 mps 769 mmHg 62%
    02:00 +6°C° 0 mm 9 mps 769 mmHg 63%
    03:00 +6°C° 0 mm 9 mps 769 mmHg 64%
    04:00 +6°C° 0 mm 8 mps 769 mmHg 65%
    05:00 +5°C° 0 mm 8 mps 769 mmHg 65%
    06:00 +5°C° 0 mm 8 mps 770 mmHg 64%
    07:00 +5°C° 0 mm 7 mps 770 mmHg 63%
    08:00 +6°C° 0 mm 7 mps 770 mmHg 62%
    09:00 +8°C° 0 mm 6 mps 770 mmHg 57%
    10:00 +9°C° 0 mm 6 mps 771 mmHg 52%
    11:00 +11°C° 0 mm 6 mps 771 mmHg 47%
    12:00 +12°C° 0 mm 5 mps 770 mmHg 44%
    13:00 +13°C° 0 mm 5 mps 770 mmHg 40%
    14:00 +14°C° 0 mm 4 mps 769 mmHg 37%
    15:00 +13°C° 0 mm 4 mps 769 mmHg 39%
    16:00 +13°C° 0 mm 3 mps 769 mmHg 41%
    17:00 +12°C° 0 mm 3 mps 769 mmHg 43%
    18:00 +13°C° 0 mm 2 mps 769 mmHg 46%
    19:00 +12°C° 0 mm 2 mps 769 mmHg 48%
    20:00 +12°C° 0 mm 1 mps 769 mmHg 50%
    21:00 +11°C° 0 mm 1 mps 768 mmHg 52%
    22:00 +11°C° 0 mm 1 mps 768 mmHg 53%
    23:00 +11°C° 0 mm 1 mps 768 mmHg 55%

    27 October, Friday

    Time Temperature Precipitation Wind Pressure Humidity
    00:00 +11°C° 0 mm 1 mps 768 mmHg 56%
    01:00 +10°C° 0 mm 2 mps 767 mmHg 58%
    02:00 +10°C° 0 mm 2 mps 767 mmHg 59%
    03:00 +9°C° 0 mm 2 mps 766 mmHg 61%
    04:00 +9°C° 0 mm 2 mps 766 mmHg 62%
    05:00 +9°C° 0 mm 2 mps 765 mmHg 63%
    06:00 +10°C° 0 mm 3 mps 765 mmHg 62%
    07:00 +10°C° 0 mm 3 mps 765 mmHg 61%
    08:00 +11°C° 0 mm 3 mps 765 mmHg 60%
    09:00 +12°C° 0 mm 3 mps 764 mmHg 55%
    10:00 +14°C° 0 mm 4 mps 764 mmHg 50%
    11:00 +17°C° 0 mm 4 mps 763 mmHg 44%
    12:00 +17°C° 0 mm 4 mps 763 mmHg 43%
    13:00 +17°C° 0 mm 5 mps 762 mmHg 42%
    14:00 +19°C° 0 mm 5 mps 761 mmHg 40%
    15:00 +17°C° 0 mm 5 mps 760 mmHg 44%
    16:00 +17°C° 0 mm 5 mps 760 mmHg 47%
    17:00 +16°C° 0 mm 6 mps 759 mmHg 51%
    18:00 +15°C° 0 mm 6 mps 759 mmHg 53%
    19:00 +15°C° 0 mm 6 mps 758 mmHg 56%
    20:00 +14°C° 0 mm 6 mps 758 mmHg 58%
    21:00 +14°C° 0 mm 6 mps 758 mmHg 59%
    22:00 +14°C° 0 mm 6 mps 757 mmHg 59%
    23:00 +13°C° 0 mm 6 mps 757 mmHg 60%
    Show more